This is the latest recevied weather packets stored in our database for station/object vk4zu-13. If no packets are shown the sender has not sent any weather packets the latest 10 day(s).
| Time | Temp. | Humidity | Pressure | Rain* | Wind** | Luminosity | Snow |
|---|---|---|---|---|---|---|---|
| 1777340569 | 24.44° C | 70% | 1022.4 hPa | 0 mm | - | 450 W/m² | - |
| 1777340498 | 24.44° C | 69% | 1022.4 hPa | 0 mm | - | 471 W/m² | - |
| 1777340429 | 23.89° C | 68% | 1022.5 hPa | 0 mm | - | 450 W/m² | - |
| 1777340358 | 23.89° C | 69% | 1022.5 hPa | 0 mm | - | 540 W/m² | - |
| 1777340290 | 23.89° C | 69% | 1022.6 hPa | 0 mm | - | 459 W/m² | - |
| 1777340221 | 24.44° C | 70% | 1022.5 hPa | 0 mm | - | 475 W/m² | - |
| 1777340166 | 23.89° C | 69% | 1022.5 hPa | 0 mm | - | 483 W/m² | - |
| 1777340104 | 23.89° C | 71% | 1022.5 hPa | 0 mm | - | 387 W/m² | - |
| 1777340035 | 23.33° C | 70% | 1022.6 hPa | 0 mm | - | 346 W/m² | - |
| 1777339965 | 23.33° C | 68% | 1022.5 hPa | 0 mm | - | 357 W/m² | - |
| 1777339895 | 23.33° C | 68% | 1022.5 hPa | 0 mm | - | 369 W/m² | - |
| 1777339836 | 23.33° C | 68% | 1022.6 hPa | 0 mm | - | 369 W/m² | - |
| 1777339773 | 23.33° C | 72% | 1022.5 hPa | 0 mm | - | 360 W/m² | - |
| 1777339704 | 23.33° C | 71% | 1022.6 hPa | 0 mm | - | 371 W/m² | - |
| 1777339634 | 23.33° C | 68% | 1022.6 hPa | 0 mm | - | 410 W/m² | - |
| 1777339563 | 23.33° C | 69% | 1022.7 hPa | 0 mm | - | 408 W/m² | - |
| 1777339495 | 23.33° C | 68% | 1022.7 hPa | 0 mm | - | 408 W/m² | - |
| 1777339432 | 23.33° C | 70% | 1022.6 hPa | 0 mm | - | 374 W/m² | - |
| 1777339372 | 23.33° C | 71% | 1022.6 hPa | 0 mm | - | 323 W/m² | - |
| 1777339302 | 23.33° C | 71% | 1022.6 hPa | 0 mm | - | 338 W/m² | - |
| 1777339261 | 23.33° C | 69% | 1022.6 hPa | 0 mm | - | 341 W/m² | - |
| 1777339232 | 23.33° C | 71% | 1022.7 hPa | 0 mm | - | 336 W/m² | - |
| 1777339116 | 23.33° C | 73% | 1022.7 hPa | 0 mm | - | 330 W/m² | - |
| 1777339049 | 23.33° C | 71% | 1022.7 hPa | 0 mm | - | 353 W/m² | - |
| 1777338988 | 23.33° C | 72% | 1022.7 hPa | 0 mm | - | 371 W/m² | - |
* Rain latest hour (hover to see other rain measurements)
** Current wind speed in m/s (hover to see current wind gust speed)